| time (UTC) | temp C | wind direction | speed KPH | gust KPH | rain 1hr cm | rain 24hr cm | rain mn cm | humidity % | barometer mb |
| 20260509023643 | 25 | 0.0 | 0.0 | 0.00 | 0.00 | 0.00 | 44 | 1022.9 | |
| 20260509022635 | 23 | 45 | 0.0 | 4.8 | 0.00 | 0.00 | 0.00 | 47 | 1023.1 |
| 20260509021643 | 23 | 62 | 1.6 | 12.9 | 0.00 | 0.00 | 0.00 | 48 | 1023.3 |
| 20260509020541 | 23 | 0.0 | 0.0 | 0.00 | 0.00 | 0.00 | 47 | 1023.4 | |
| 20260509015540 | 23 | 179 | 0.0 | 4.8 | 0.00 | 0.00 | 0.00 | 45 | 1023.6 |
| 20260509014543 | 23 | 78 | 0.0 | 4.8 | 0.00 | 0.00 | 0.00 | 46 | 1023.8 |
| 20260509013539 | 22 | 0.0 | 0.0 | 0.00 | 0.00 | 0.00 | 48 | 1023.9 | |
| 20260509012623 | 22 | 200 | 0.0 | 8.0 | 0.00 | 0.00 | 0.00 | 47 | 1024.0 |
| 20260509011539 | 21 | 0.0 | 0.0 | 0.00 | 0.00 | 0.00 | 49 | 1024.1 | |
| 20260509010636 | 20 | 0.0 | 0.0 | 0.00 | 0.00 | 0.00 | 50 | 1024.1 | |
| 20260509005643 | 20 | 0.0 | 0.0 | 0.00 | 0.00 | 0.00 | 50 | 1024.2 | |
| 20260509004635 | 20 | 0.0 | 0.0 | 0.00 | 0.00 | 0.00 | 51 | 1024.2 | |
| 20260509003645 | 20 | 0.0 | 0.0 | 0.00 | 0.00 | 0.00 | 50 | 1024.3 | |
| 20260509002717 | 20 | 0.0 | 0.0 | 0.00 | 0.00 | 0.00 | 50 | 1024.4 | |
| 20260509001643 | 19 | 0.0 | 0.0 | 0.00 | 0.00 | 0.00 | 51 | 1024.5 | |
| 20260509000635 | 19 | 220 | 0.0 | 4.8 | 0.00 | 0.00 | 0.00 | 50 | 1024.4 |
| 20260508235642 | 20 | 0.0 | 0.0 | 0.00 | 0.00 | 0.00 | 49 | 1024.4 | |
| 20260508234756 | 20 | 210 | 0.0 | 4.8 | 0.00 | 0.00 | 0.00 | 50 | 1024.5 |
| 20260508233726 | 18 | 184 | 0.0 | 4.8 | 0.00 | 0.00 | 0.00 | 51 | 1024.4 |
| 20260508232635 | 18 | 0.0 | 0.0 | 0.00 | 0.00 | 0.00 | 53 | 1024.3 | |
| 20260508231644 | 17 | 199 | 0.0 | 8.0 | 0.00 | 0.00 | 0.00 | 56 | 1024.2 |
| 20260508230622 | 16 | 0.0 | 0.0 | 0.00 | 0.00 | 0.00 | 58 | 1024.1 | |
| 20260508225619 | 16 | 192 | 0.0 | 4.8 | 0.00 | 0.00 | 0.00 | 58 | 1024.2 |
| 20260508224541 | 15 | 0.0 | 0.0 | 0.00 | 0.00 | 0.00 | 60 | 1024.1 | |
| 20260508223540 | 15 | 0.0 | 0.0 | 0.00 | 0.00 | 0.00 | 61 | 1023.8 | |
| 20260508222542 | 15 | 0.0 | 0.0 | 0.00 | 0.00 | 0.00 | 63 | 1023.8 | |
| 20260508221539 | 13 | 181 | 0.0 | 4.8 | 0.00 | 0.00 | 0.00 | 65 | 1023.7 |
| 20260508220543 | 13 | 162 | 0.0 | 12.9 | 0.00 | 0.00 | 0.00 | 65 | 1023.7 |
| 20260508215539 | 13 | 0.0 | 4.8 | 0.00 | 0.00 | 0.00 | 66 | 1023.4 | |
| 20260508214544 | 13 | 0.0 | 0.0 | 0.00 | 0.00 | 0.00 | 67 | 1023.3 | |
| 20260508213619 | 12 | 0.0 | 0.0 | 0.00 | 0.00 | 0.00 | 69 | 1023.1 | |
| 20260508212542 | 11 | 0.0 | 0.0 | 0.00 | 0.00 | 0.00 | 70 | 1022.9 | |
| 20260508211539 | 11 | 0.0 | 0.0 | 0.00 | 0.00 | 0.00 | 72 | 1023.0 | |
| 20260508210541 | 11 | 0.0 | 0.0 | 0.00 | 0.00 | 0.00 | 72 | 1022.9 | |
| 20260508205539 | 10 | 230 | 0.0 | 4.8 | 0.00 | 0.00 | 0.00 | 73 | 1022.8 |
| 20260508204541 | 10 | 0.0 | 0.0 | 0.00 | 0.00 | 0.00 | 73 | 1022.6 | |
| 20260508203540 | 10 | 0.0 | 0.0 | 0.00 | 0.00 | 0.00 | 73 | 1022.5 | |
| 20260508202543 | 10 | 0.0 | 4.8 | 0.00 | 0.00 | 0.00 | 73 | 1022.4 | |
| 20260508201539 | 10 | 0.0 | 0.0 | 0.00 | 0.00 | 0.00 | 72 | 1022.5 | |
| 20260508200702 | 10 | 0.0 | 0.0 | 0.00 | 0.00 | 0.00 | 73 | 1022.3 | |
| 20260508195540 | 10 | 0.0 | 0.0 | 0.00 | 0.00 | 0.00 | 73 | 1022.1 | |
| 20260508194542 | 10 | 0.0 | 0.0 | 0.00 | 0.00 | 0.00 | 74 | 1022.0 | |
| 20260508193540 | 10 | 0.0 | 0.0 | 0.00 | 0.00 | 0.00 | 74 | 1021.9 | |
| 20260508192542 | 10 | 0.0 | 0.0 | 0.00 | 0.00 | 0.00 | 74 | 1021.8 | |
| 20260508191539 | 10 | 0.0 | 0.0 | 0.00 | 0.00 | 0.00 | 74 | 1021.6 | |
| 20260508190541 | 10 | 0.0 | 0.0 | 0.00 | 0.00 | 0.00 | 74 | 1021.6 | |
| 20260508185725 | 10 | 0.0 | 0.0 | 0.00 | 0.00 | 0.00 | 73 | 1021.5 | |
| 20260508183643 | 10 | 0.0 | 0.0 | 0.00 | 0.00 | 0.00 | 72 | 1021.5 | |
| 20260508182634 | 10 | 0.0 | 0.0 | 0.00 | 0.00 | 0.00 | 73 | 1021.4 | |
| 20260508181723 | 10 | 0.0 | 0.0 | 0.00 | 0.00 | 0.00 | 72 | 1021.3 | |
| 20260508180542 | 10 | 220 | 0.0 | 4.8 | 0.00 | 0.00 | 0.00 | 72 | 1021.4 |
| 20260508175539 | 10 | 0.0 | 0.0 | 0.00 | 0.00 | 0.00 | 74 | 1021.2 | |
| 20260508174542 | 10 | 0.0 | 0.0 | 0.00 | 0.00 | 0.00 | 76 | 1021.4 | |
| 20260508173538 | 10 | 0.0 | 0.0 | 0.00 | 0.00 | 0.00 | 76 | 1021.4 | |
| 20260508172542 | 10 | 0.0 | 0.0 | 0.00 | 0.00 | 0.00 | 76 | 1021.4 | |
| 20260508171619 | 10 | 0.0 | 0.0 | 0.00 | 0.00 | 0.00 | 74 | 1021.3 | |
| 20260508170542 | 10 | 0.0 | 0.0 | 0.00 | 0.00 | 0.00 | 73 | 1021.3 | |
| 20260508165539 | 10 | 0.0 | 0.0 | 0.00 | 0.00 | 0.00 | 72 | 1021.2 | |
| 20260508164542 | 10 | 0.0 | 0.0 | 0.00 | 0.00 | 0.00 | 71 | 1021.2 | |
| 20260508163539 | 11 | 0.0 | 0.0 | 0.00 | 0.00 | 0.00 | 69 | 1021.1 | |
| 20260508162543 | 11 | 0.0 | 0.0 | 0.00 | 0.00 | 0.00 | 68 | 1021.1 | |
| 20260508161539 | 11 | 0.0 | 0.0 | 0.00 | 0.00 | 0.00 | 68 | 1021.1 | |
| 20260508160542 | 10 | 0.0 | 0.0 | 0.00 | 0.00 | 0.00 | 69 | 1021.1 | |
| 20260508155643 | 10 | 0.0 | 0.0 | 0.00 | 0.00 | 0.00 | 69 | 1021.0 | |
| 20260508154635 | 10 | 0.0 | 0.0 | 0.00 | 0.00 | 0.00 | 68 | 1021.1 | |
| 20260508153539 | 10 | 0.0 | 0.0 | 0.00 | 0.00 | 0.00 | 68 | 1021.1 | |
| 20260508152542 | 11 | 0.0 | 0.0 | 0.00 | 0.00 | 0.00 | 69 | 1021.0 | |
| 20260508151541 | 11 | 0.0 | 0.0 | 0.00 | 0.00 | 0.00 | 68 | 1020.9 | |
| 20260508150542 | 11 | 0.0 | 0.0 | 0.00 | 0.00 | 0.00 | 66 | 1020.9 | |
| 20260508145723 | 11 | 0.0 | 0.0 | 0.00 | 0.00 | 0.00 | 68 | 1020.8 | |
| 20260508144635 | 11 | 0.0 | 0.0 | 0.00 | 0.00 | 0.00 | 70 | 1021.0 | |
| 20260508143643 | 11 | 0.0 | 0.0 | 0.00 | 0.00 | 0.00 | 69 | 1020.9 | |
| 20260508142635 | 11 | 0.0 | 0.0 | 0.00 | 0.00 | 0.00 | 68 | 1020.8 | |
| 20260508141644 | 11 | 0.0 | 0.0 | 0.00 | 0.00 | 0.00 | 70 | 1020.9 | |
| 20260508135538 | 11 | 0.0 | 0.0 | 0.00 | 0.00 | 0.00 | 71 | 1020.8 | |
| 20260508134541 | 11 | 0.0 | 0.0 | 0.00 | 0.00 | 0.00 | 70 | 1020.7 | |
| 20260508133620 | 12 | 0.0 | 0.0 | 0.00 | 0.00 | 0.00 | 71 | 1020.7 | |
| 20260508132542 | 12 | 0.0 | 0.0 | 0.00 | 0.00 | 0.00 | 72 | 1020.7 | |
| 20260508131642 | 11 | 0.0 | 0.0 | 0.00 | 0.00 | 0.00 | 67 | 1020.6 | |
| 20260508130635 | 11 | 0.0 | 0.0 | 0.00 | 0.00 | 0.00 | 66 | 1020.4 | |
| 20260508125644 | 11 | 0.0 | 0.0 | 0.00 | 0.00 | 0.00 | 64 | 1020.3 | |
| 20260508124634 | 11 | 0.0 | 0.0 | 0.00 | 0.00 | 0.00 | 63 | 1020.3 | |
| 20260508123645 | 11 | 0.0 | 0.0 | 0.00 | 0.00 | 0.00 | 62 | 1020.4 | |
| 20260508122636 | 12 | 0.0 | 0.0 | 0.00 | 0.00 | 0.00 | 63 | 1020.5 | |
| 20260508120622 | 12 | 0.0 | 0.0 | 0.00 | 0.00 | 0.00 | 59 | 1020.5 | |
| 20260508115539 | 12 | 0.0 | 0.0 | 0.00 | 0.00 | 0.00 | 60 | 1020.5 | |
| 20260508114541 | 13 | 0.0 | 0.0 | 0.00 | 0.00 | 0.00 | 61 | 1020.7 | |
| 20260508113538 | 14 | 0.0 | 0.0 | 0.00 | 0.00 | 0.00 | 60 | 1020.5 | |
| 20260508112622 | 13 | 0.0 | 0.0 | 0.00 | 0.00 | 0.00 | 60 | 1020.5 | |
| 20260508111539 | 13 | 0.0 | 0.0 | 0.00 | 0.00 | 0.00 | 60 | 1020.4 | |
| 20260508110541 | 14 | 0.0 | 0.0 | 0.00 | 0.00 | 0.00 | 61 | 1020.4 | |
| 20260508105539 | 14 | 0.0 | 0.0 | 0.00 | 0.00 | 0.00 | 60 | 1020.4 | |
| 20260508104542 | 15 | 0.0 | 0.0 | 0.00 | 0.00 | 0.00 | 59 | 1020.4 | |
| 20260508103538 | 15 | 0.0 | 0.0 | 0.00 | 0.00 | 0.00 | 59 | 1020.3 | |
| 20260508102542 | 15 | 0.0 | 0.0 | 0.00 | 0.00 | 0.00 | 59 | 1020.3 | |
| 20260508101642 | 15 | 0.0 | 0.0 | 0.00 | 0.00 | 0.00 | 58 | 1020.3 | |
| 20260508100635 | 15 | 0.0 | 4.8 | 0.00 | 0.00 | 0.00 | 58 | 1020.3 | |
| 20260508095643 | 15 | 0.0 | 0.0 | 0.00 | 0.00 | 0.00 | 58 | 1020.1 | |
| 20260508094634 | 15 | 0.0 | 0.0 | 0.00 | 0.00 | 0.00 | 57 | 1020.0 | |
| 20260508093643 | 15 | 0.0 | 0.0 | 0.00 | 0.00 | 0.00 | 55 | 1020.1 | |
| 20260508092636 | 15 | 0.0 | 0.0 | 0.00 | 0.00 | 0.00 | 54 | 1020.1 | |
| 20260508091538 | 16 | 0.0 | 0.0 | 0.00 | 0.00 | 0.00 | 54 | 1019.9 | |
| 20260508090542 | 16 | 0.0 | 0.0 | 0.00 | 0.00 | 0.00 | 52 | 1019.9 | |
| 20260508085541 | 16 | 0.0 | 0.0 | 0.00 | 0.00 | 0.00 | 50 | 1019.6 | |
| 20260508084541 | 16 | 0.0 | 0.0 | 0.00 | 0.00 | 0.00 | 49 | 1019.6 | |
| 20260508083539 | 16 | 0.0 | 0.0 | 0.00 | 0.00 | 0.00 | 50 | 1019.5 | |
| 20260508082542 | 16 | 0.0 | 0.0 | 0.00 | 0.00 | 0.00 | 48 | 1019.3 | |
| 20260508081620 | 16 | 0.0 | 0.0 | 0.00 | 0.00 | 0.00 | 48 | 1019.1 | |
| 20260508080634 | 17 | 0.0 | 0.0 | 0.00 | 0.00 | 0.00 | 46 | 1018.7 | |
| 20260508075643 | 17 | 0.0 | 0.0 | 0.00 | 0.00 | 0.00 | 44 | 1018.7 | |
| 20260508074634 | 17 | 0.0 | 0.0 | 0.00 | 0.00 | 0.00 | 45 | 1018.4 | |
| 20260508073723 | 17 | 0.0 | 0.0 | 0.00 | 0.00 | 0.00 | 42 | 1018.4 | |
| 20260508072635 | 17 | 0.0 | 0.0 | 0.00 | 0.00 | 0.00 | 40 | 1018.4 | |
| 20260508071644 | 18 | 0.0 | 0.0 | 0.00 | 0.00 | 0.00 | 38 | 1018.3 | |
| 20260508070635 | 20 | 0.0 | 0.0 | 0.00 | 0.00 | 0.00 | 35 | 1018.1 | |
| 20260508065643 | 20 | 0.0 | 0.0 | 0.00 | 0.00 | 0.00 | 31 | 1018.2 | |
| 20260508064636 | 21 | 0.0 | 0.0 | 0.00 | 0.00 | 0.00 | 29 | 1018.1 | |
| 20260508063643 | 21 | 0.0 | 0.0 | 0.00 | 0.00 | 0.00 | 28 | 1018.0 | |
| 20260508062634 | 22 | 0.0 | 0.0 | 0.00 | 0.00 | 0.00 | 26 | 1017.9 | |
| 20260508061538 | 22 | 305 | 1.6 | 8.0 | 0.00 | 0.00 | 0.00 | 24 | 1017.9 |
| 20260508060634 | 23 | 0.0 | 0.0 | 0.00 | 0.00 | 0.00 | 24 | 1017.9 | |
| 20260508055643 | 22 | 0.0 | 4.8 | 0.00 | 0.00 | 0.00 | 25 | 1017.9 | |
| 20260508054634 | 22 | 259 | 0.0 | 4.8 | 0.00 | 0.00 | 0.00 | 24 | 1018.0 |
| 20260508053642 | 22 | 307 | 1.6 | 12.9 | 0.00 | 0.00 | 0.00 | 23 | 1018.1 |
| 20260508052635 | 23 | 0.0 | 0.0 | 0.00 | 0.00 | 0.00 | 23 | 1018.2 | |
| 20260508051539 | 23 | 244 | 0.0 | 4.8 | 0.00 | 0.00 | 0.00 | 22 | 1018.2 |
| 20260508050636 | 22 | 231 | 1.6 | 12.9 | 0.00 | 0.00 | 0.00 | 22 | 1018.2 |
| 20260508045643 | 22 | 289 | 1.6 | 12.9 | 0.00 | 0.00 | 0.00 | 22 | 1018.3 |
| 20260508044636 | 22 | 230 | 1.6 | 12.9 | 0.00 | 0.00 | 0.00 | 23 | 1018.4 |
| 20260508043643 | 22 | 246 | 1.6 | 12.9 | 0.00 | 0.00 | 0.00 | 23 | 1018.4 |
| 20260508042541 | 22 | 224 | 3.2 | 12.9 | 0.00 | 0.00 | 0.00 | 24 | 1018.4 |
| 20260508041539 | 22 | 278 | 1.6 | 8.0 | 0.00 | 0.00 | 0.00 | 25 | 1018.5 |
| 20260508040635 | 23 | 220 | 0.0 | 8.0 | 0.00 | 0.00 | 0.00 | 24 | 1018.6 |
| 20260508035723 | 23 | 234 | 1.6 | 12.9 | 0.00 | 0.00 | 0.00 | 24 | 1018.7 |
| 20260508034635 | 23 | 225 | 1.6 | 8.0 | 0.00 | 0.00 | 0.00 | 24 | 1018.7 |
| 20260508033644 | 23 | 168 | 0.0 | 4.8 | 0.00 | 0.00 | 0.00 | 24 | 1018.9 |
| 20260508032635 | 23 | 0.0 | 0.0 | 0.00 | 0.00 | 0.00 | 26 | 1018.9 | |
| 20260508031643 | 23 | 186 | 1.6 | 8.0 | 0.00 | 0.00 | 0.00 | 26 | 1019.1 |
| 20260508030543 | 22 | 179 | 0.0 | 4.8 | 0.00 | 0.00 | 0.00 | 26 | 1019.1 |
| 20260508025538 | 22 | 279 | 1.6 | 8.0 | 0.00 | 0.00 | 0.00 | 25 | 1019.3 |
| 20260508024542 | 22 | 306 | 3.2 | 16.1 | 0.00 | 0.00 | 0.00 | 22 | 1019.5 |